Content
SEND FEEDBACK

Daily
Averages
Monthly
Summary
United States of America

UMATAC, GUAM


Home > North America > United States > Guam
Elevation: 190 feet     Latitude: 13 17N     Longitude: 144 40E

WEATHER
 
SELECT A DAY
Number of Records: 354,808;   Date Range: 1/1/95 - 11/27/14
 
SHARE

PRINT THIS DATA

[ ← Previous Day ]
WEATHER ALMANAC - SEPTEMBER 18, 2013
[ Next Day → ]
[ °C ]   °F
Weather ElementAverageHighLow
Temperature80.1 °F86 °F (12:26 pm)76.5 °F (4:58 am)
Dewpoint76.7 °F78.8 °F (9:10 am)72.9 °F (9:58 am)
Humidity89.5 %100 % (1:58 am)74 % (12:26 pm)
Barometer29.58 in29.65 in (12:48 am)29.44 in (2:58 pm)
Wind Speed12.1 mph18.4 mph (3:13 pm)
Wind Gust21.9 mph (2:58 pm)
Weather ElementAverage
Visibility9.3 mi
Wind DirectionNW (311.1 °)

Weather ElementTotal
Precipitation0.27 in
Cooling Degree Days16.3 (Base 65)
Growing Degree Days31.3 (Base 50)
Averaged from 119 records on September 18, 2013
WEATHER CONDITIONS BREAKOUT
WIND DIRECTION BREAKOUT
WEATHER BY HOUR - SEPTEMBER 18, 2013
[ °C ]   °F
Local TimeTemperatureDewpointHumidityBarometerVisibilityWind DirectionWind SpeedGust SpeedPrecipitationEventsConditions
12:48 AM78.8 °F77.0 °F94 %29.65 in10.0 miVariable5.8 mph18.4 mphMostly Cloudy
12:49 AM78.8 °F77.0 °F94 %29.65 in5.0 miNNE (20°)9.2 mph18.4 mphRainLight Rain
12:54 AM78.8 °F77.0 °F94 %29.65 in2.5 miVariable5.8 mph18.4 mphRainLight Rain
12:58 AM78.8 °F75.2 °F89 %29.52 in2.5 miNNW (340°)8.1 mph0.00 inRainRain
1:03 AM78.8 °F77.0 °F94 %29.65 in7.0 miNNW (340°)8.1 mphRainLight Rain
1:08 AM78.8 °F77.0 °F94 %29.64 in10.0 miNNW (330°)8.1 mphLight Drizzle
1:09 AM78.8 °F77.0 °F94 %29.64 in10.0 miNNW (340°)8.1 mphMostly Cloudy
1:29 AM78.8 °F75.2 °F89 %29.63 in10.0 miNNW (340°)8.1 mphMostly Cloudy
1:44 AM78.8 °F77.0 °F94 %29.63 in9.0 miNNW (330°)16.1 mph20.7 mphRainLight Rain
1:49 AM78.8 °F77.0 °F94 %29.63 in2.5 miNNW (340°)9.2 mph20.7 mphRainHeavy Rain
1:54 AM78.8 °F77.0 °F94 %29.63 in2.5 miNorth (360°)9.2 mph20.7 mphRainRain
1:58 AM77.0 °F77.0 °F100 %29.51 in3.0 miNorth (350°)8.1 mph0.09 inRainLight Rain
2:03 AM77.0 °F77.0 °F100 %29.63 in10.0 miNNW (330°)6.9 mphRainLight Rain
2:04 AM77.0 °F77.0 °F100 %29.62 in10.0 miNNW (330°)6.9 mphOvercast
2:09 AM77.0 °F75.2 °F94 %29.62 in10.0 miNW (320°)6.9 mphOvercast
2:58 AM76.8 °F75.0 °F94 %29.50 in10.0 miWNW (290°)4.6 mph0.00 inClear
3:58 AM76.6 °F75.7 °F97 %29.49 in10.0 miWSW (250°)4.6 mphClear
4:19 AM77.0 °F75.2 °F94 %29.61 in9.0 miWSW (250°)5.8 mphRainLight Rain
4:39 AM77.0 °F75.2 °F94 %29.61 in6.0 miWest (280°)6.9 mphRain-ThunderstormLight Rain
4:42 AM77.0 °F75.2 °F94 %29.61 in9.0 miWest (270°)6.9 mphThunderstormScattered Clouds
4:55 AM77.0 °F75.2 °F94 %29.61 in8.0 miNW (310°)10.4 mphRainLight Rain
4:58 AM76.5 °F75.7 °F98 %29.49 in7.0 miNW (320°)9.2 mph0.02 inRainLight Rain
5:11 AM77.0 °F75.2 °F94 %29.61 in10.0 miNW (310°)8.1 mphMostly Cloudy
5:16 AM77.0 °F75.2 °F94 %29.61 in10.0 miWNW (300°)6.9 mphMostly Cloudy
5:21 AM77.0 °F75.2 °F94 %29.61 in10.0 miWNW (300°)8.1 mphMostly Cloudy
5:36 AM77.0 °F77.0 °F100 %29.61 in10.0 miWNW (300°)8.1 mphMostly Cloudy
5:46 AM77.0 °F75.2 °F94 %29.61 in10.0 miWNW (300°)9.2 mphMostly Cloudy
5:50 AM77.0 °F77.0 °F100 %29.61 in10.0 miWNW (300°)9.2 mphRainLight Rain
5:55 AM77.0 °F77.0 °F100 %29.61 in10.0 miNW (320°)9.2 mphRainLight Rain
5:58 AM77.7 °F76.1 °F95 %29.49 in10.0 miNNW (330°)10.4 mph0.03 inRainLight Rain
6:00 AM78.8 °F77.0 °F94 %29.61 in10.0 miNNW (330°)10.4 mphScattered Clouds
6:08 AM78.8 °F77.0 °F94 %29.61 in9.0 miNW (310°)10.4 mphRainLight Rain
6:18 AM77.0 °F75.2 °F94 %29.62 in5.0 miNW (320°)10.4 mphRainLight Rain
6:20 AM77.0 °F77.0 °F100 %29.62 in8.0 miNW (320°)10.4 mphScattered Clouds
6:58 AM77.5 °F75.7 °F94 %29.50 in10.0 miWNW (300°)8.1 mph0.02 inClear
7:58 AM78.8 °F77.2 °F95 %29.52 in10.0 miWNW (300°)8.1 mphPartly Cloudy
8:58 AM81.1 °F77.4 °F88 %29.53 in10.0 miWNW (300°)10.4 mphPartly Cloudy
9:10 AM82.4 °F78.8 °F89 %29.65 in10.0 miWNW (300°)10.4 mphLight Drizzle
9:20 AM82.4 °F77.0 °F84 %29.65 in10.0 miWNW (290°)11.5 mphPartly Cloudy
9:58 AM79.2 °F72.9 °F81 %29.52 in10.0 miWNW (300°)12.7 mph0.00 inScattered Clouds
10:07 AM82.4 °F78.8 °F89 %29.64 in9.0 miNW (320°)15.0 mphRainRain
10:19 AM80.6 °F77.0 °F89 %29.64 in10.0 miNW (320°)11.5 mphScattered Clouds
10:54 AM82.4 °F77.0 °F84 %29.64 in10.0 miWNW (300°)10.4 mphMostly Cloudy
10:58 AM82.0 °F77.2 °F85 %29.52 in10.0 miNW (310°)12.7 mph0.00 inMostly Cloudy
11:03 AM82.4 °F77.0 °F84 %29.64 in10.0 miWNW (300°)11.5 mphMostly Cloudy
11:08 AM82.4 °F77.0 °F84 %29.64 in10.0 miWNW (300°)11.5 mphMostly Cloudy
11:58 AM83.7 °F76.8 °F80 %29.49 in10.0 miWest (280°)12.7 mphScattered Clouds
12:06 PM84.2 °F77.0 °F79 %29.61 in10.0 miNW (310°)12.7 mphLight Drizzle
12:16 PM84.2 °F77.0 °F79 %29.60 in10.0 miNNW (340°)15.0 mphMostly Cloudy
12:21 PM84.2 °F77.0 °F79 %29.60 in10.0 miNNW (340°)13.8 mphOvercast
12:26 PM86.0 °F77.0 °F74 %29.60 in10.0 miNNW (340°)15.0 mphOvercast
12:36 PM84.2 °F77.0 °F79 %29.60 in10.0 miNNW (340°)15.0 mphOvercast
12:41 PM84.2 °F77.0 °F79 %29.60 in10.0 miNNW (330°)15.0 mphOvercast
12:58 PM85.5 °F76.5 °F74 %29.47 in10.0 miNNW (330°)13.8 mph0.00 inMostly Cloudy
1:00 PM86.0 °F77.0 °F74 %29.59 in10.0 miNNW (330°)15.0 mphRainLight Rain
1:09 PM84.2 °F77.0 °F79 %29.59 in10.0 miNNW (340°)15.0 mphMostly Cloudy
1:14 PM84.2 °F75.2 °F74 %29.58 in10.0 miNNW (330°)12.7 mphScattered Clouds
1:29 PM84.2 °F78.8 °F84 %29.58 in10.0 miNNW (340°)17.3 mphLight Drizzle
1:37 PM84.2 °F77.0 °F79 %29.57 in10.0 miNNW (340°)15.0 mphPartly Cloudy
1:58 PM83.5 °F76.5 °F79 %29.45 in10.0 miNNW (340°)16.1 mph0.00 inScattered Clouds
2:21 PM84.2 °F77.0 °F79 %29.56 in10.0 miNNW (340°)16.1 mphRainLight Rain
2:31 PM84.2 °F77.0 °F79 %29.56 in10.0 miNNW (330°)16.1 mph20.7 mphScattered Clouds
2:52 PM84.2 °F77.0 °F79 %29.56 in10.0 miNNW (340°)12.7 mphLight Drizzle
2:57 PM84.2 °F78.8 °F84 %29.56 in10.0 miNNW (330°)15.0 mph20.7 mphRainRain
2:58 PM84.6 °F77.7 °F80 %29.44 in10.0 miNNW (330°)17.3 mph21.9 mph0.00 inRainRain
3:03 PM84.2 °F77.0 °F79 %29.56 in10.0 miNNW (340°)17.3 mph21.9 mphRainLight Rain
3:13 PM84.2 °F77.0 °F79 %29.56 in7.0 miNW (310°)18.4 mph21.9 mphRainLight Rain
3:22 PM84.2 °F77.0 °F79 %29.56 in9.0 miNNW (330°)16.1 mphMostly Cloudy
3:27 PM84.2 °F77.0 °F79 %29.56 in10.0 miNNW (330°)15.0 mphMostly Cloudy
3:37 PM86.0 °F77.0 °F74 %29.55 in10.0 miNW (320°)15.0 mphScattered Clouds
3:58 PM85.3 °F76.3 °F74 %29.44 in10.0 miNNW (330°)13.8 mph0.00 inScattered Clouds
4:13 PM82.4 °F77.0 °F84 %29.56 in10.0 miNW (320°)13.8 mph20.7 mphMostly Cloudy
4:23 PM82.4 °F77.0 °F84 %29.56 in10.0 miNW (320°)15.0 mph20.7 mphScattered Clouds
4:25 PM82.4 °F77.0 °F84 %29.56 in10.0 miNW (320°)13.8 mphLight Drizzle
4:40 PM80.6 °F77.0 °F89 %29.57 in10.0 miNW (310°)13.8 mphLight Drizzle
4:43 PM80.6 °F77.0 °F89 %29.57 in10.0 miNW (310°)11.5 mphMostly Cloudy
4:58 PM81.5 °F76.5 °F85 %29.45 in10.0 miNW (310°)13.8 mph0.00 inMostly Cloudy
5:02 PM82.4 °F77.0 °F84 %29.57 in10.0 miNW (310°)16.1 mphLight Drizzle
5:11 PM80.6 °F77.0 °F89 %29.57 in10.0 miNW (320°)13.8 mphScattered Clouds
5:19 PM80.6 °F77.0 °F89 %29.57 in10.0 miNW (310°)15.0 mphRainLight Rain
5:24 PM80.6 °F77.0 °F89 %29.57 in10.0 miNW (320°)12.7 mphRainLight Rain
5:29 PM80.6 °F77.0 °F89 %29.57 in10.0 miNW (310°)12.7 mphRainLight Rain
5:32 PM80.6 °F77.0 °F89 %29.57 in10.0 miNW (310°)12.7 mphMostly Cloudy
5:47 PM80.6 °F77.0 °F89 %29.57 in10.0 miNW (320°)16.1 mphLight Drizzle
5:58 PM79.5 °F76.6 °F91 %29.46 in10.0 miNW (310°)12.7 mph0.00 inRainLight Rain
5:59 PM78.8 °F77.0 °F94 %29.58 in10.0 miNW (310°)13.8 mphMostly Cloudy
6:04 PM78.8 °F77.0 °F94 %29.58 in10.0 miNW (310°)15.0 mphScattered Clouds
6:44 PM78.8 °F77.0 °F94 %29.59 in10.0 miNW (310°)15.0 mphMostly Cloudy
6:58 PM79.5 °F76.6 °F91 %29.48 in10.0 miNW (320°)12.7 mph0.00 inMostly Cloudy
7:29 PM80.6 °F77.0 °F89 %29.61 in10.0 miNW (320°)13.8 mphRainRain
7:42 PM78.8 °F77.0 °F94 %29.60 in10.0 miNW (320°)11.5 mphMostly Cloudy
7:57 PM78.8 °F77.0 °F94 %29.61 in10.0 miNW (320°)12.7 mph20.7 mphScattered Clouds
7:58 PM78.8 °F77.0 °F94 %29.49 in10.0 miNW (320°)11.5 mph20.7 mph0.01 inScattered Clouds
8:18 PM78.8 °F77.0 °F94 %29.62 in10.0 miNW (320°)11.5 mphMostly Cloudy
8:23 PM78.8 °F77.0 °F94 %29.62 in10.0 miNW (320°)11.5 mphScattered Clouds
8:28 PM78.8 °F77.0 °F94 %29.62 in9.0 miNNW (340°)15.0 mphMostly Cloudy
8:29 PM78.8 °F77.0 °F94 %29.62 in8.0 miNNW (340°)15.0 mphRainLight Rain
8:34 PM78.8 °F77.0 °F94 %29.62 in6.0 miNW (310°)15.0 mphRainLight Rain
8:39 PM77.0 °F75.2 °F94 %29.63 in7.0 miNW (320°)9.2 mphRainLight Rain
8:40 PM77.0 °F75.2 °F94 %29.62 in8.0 miNW (320°)9.2 mphMostly Cloudy
8:45 PM77.0 °F73.4 °F89 %29.63 in10.0 miNW (320°)13.8 mphRainLight Rain
8:58 PM77.2 °F75.0 °F93 %29.51 in10.0 miNW (310°)11.5 mph0.05 inRainLight Rain
9:00 PM78.8 °F77.0 °F94 %29.63 in10.0 miNW (310°)12.7 mphMostly Cloudy
9:08 PM78.8 °F77.0 °F94 %29.64 in10.0 miNW (310°)12.7 mphLight Drizzle
9:13 PM78.8 °F77.0 °F94 %29.64 in10.0 miNW (310°)13.8 mphLight Drizzle
9:18 PM78.8 °F77.0 °F94 %29.64 in10.0 miNW (310°)15.0 mphRainLight Rain
9:23 PM78.8 °F77.0 °F94 %29.64 in9.0 miNW (310°)17.3 mphRainLight Rain
9:33 PM78.8 °F77.0 °F94 %29.64 in6.0 miNW (310°)15.0 mphRainLight Rain
9:39 PM78.8 °F77.0 °F94 %29.64 in10.0 miNW (310°)15.0 mphScattered Clouds
9:58 PM78.4 °F77.2 °F96 %29.52 in10.0 miNW (320°)13.8 mph0.05 inPartly Cloudy
10:58 PM78.6 °F76.8 °F94 %29.50 in10.0 miNNW (340°)17.3 mph20.7 mphMostly Cloudy
10:59 PM78.8 °F77.0 °F94 %29.62 in10.0 miNNW (330°)12.7 mph20.7 mphRainLight Rain
11:07 PM78.8 °F77.0 °F94 %29.62 in10.0 miNNW (330°)15.0 mphScattered Clouds
11:12 PM78.8 °F77.0 °F94 %29.62 in10.0 miNorth (350°)15.0 mphMostly Cloudy
11:17 PM78.8 °F77.0 °F94 %29.62 in10.0 miNNW (340°)11.5 mphMostly Cloudy
11:22 PM78.8 °F77.0 °F94 %29.62 in10.0 miNNW (340°)15.0 mphMostly Cloudy
11:27 PM78.8 °F77.0 °F94 %29.62 in10.0 miNorth (350°)15.0 mphMostly Cloudy
11:47 PM78.8 °F77.0 °F94 %29.61 in10.0 miNW (320°)8.1 mphMostly Cloudy
11:58 PM78.6 °F77.4 °F96 %29.49 in10.0 miNW (320°)10.4 mph0.00 inMostly Cloudy
Hourly data recorded from PGUA, located miles away from Umatac, Guam







STORIES FROM OUR PARTNERS